Year,Month,Day,Hour,Minute,Value (Times are PST for temperature in C)
2016,08,25,00,00,20.20
2016,08,25,00,01,20.20
2016,08,25,00,02,20.20
2016,08,25,00,03,20.10
2016,08,25,00,04,20.10
2016,08,25,00,05,20.10
2016,08,25,00,06,20.00
2016,08,25,00,07,19.90
2016,08,25,00,08,19.90
2016,08,25,00,09,19.90
2016,08,25,00,10,19.90
2016,08,25,00,11,19.90
2016,08,25,00,12,19.80
2016,08,25,00,13,19.80
2016,08,25,00,14,19.80
2016,08,25,00,15,19.70
2016,08,25,00,16,19.70
2016,08,25,00,17,19.70
2016,08,25,00,18,19.60
2016,08,25,00,19,19.60
2016,08,25,00,20,19.60
2016,08,25,00,21,19.50
2016,08,25,00,22,19.50
2016,08,25,00,23,19.50
2016,08,25,00,24,19.40
2016,08,25,00,25,19.40
2016,08,25,00,26,19.40
2016,08,25,00,27,19.40
2016,08,25,00,28,19.30
2016,08,25,00,29,19.30
2016,08,25,00,30,19.20
2016,08,25,00,31,19.20
2016,08,25,00,32,19.20
2016,08,25,00,33,19.10
2016,08,25,00,34,19.10
2016,08,25,00,35,19.10
2016,08,25,00,36,19.10
2016,08,25,00,37,19.10
2016,08,25,00,38,19.00
2016,08,25,00,39,18.90
2016,08,25,00,40,18.90
2016,08,25,00,41,18.90
2016,08,25,00,42,18.90
2016,08,25,00,43,18.90
2016,08,25,00,44,18.90
2016,08,25,00,45,18.90
2016,08,25,00,46,18.80
2016,08,25,00,47,18.80
2016,08,25,00,48,18.80
2016,08,25,00,49,18.80
2016,08,25,00,50,18.80
2016,08,25,00,51,18.80
2016,08,25,00,52,18.80
2016,08,25,00,53,18.80
2016,08,25,00,54,18.70
2016,08,25,00,55,18.70
2016,08,25,00,56,18.70
2016,08,25,00,57,18.70
2016,08,25,00,58,18.70
2016,08,25,00,59,18.70
2016,08,25,01,00,18.70
2016,08,25,01,01,18.70
2016,08,25,01,02,18.70
2016,08,25,01,03,18.70
2016,08,25,01,04,18.60
2016,08,25,01,05,18.60
2016,08,25,01,06,18.60
2016,08,25,01,07,18.60
2016,08,25,01,08,18.60
2016,08,25,01,09,18.50
2016,08,25,01,10,18.50
2016,08,25,01,11,18.50
2016,08,25,01,12,18.50
2016,08,25,01,13,18.50
2016,08,25,01,14,18.40
2016,08,25,01,15,18.40
2016,08,25,01,16,18.40
2016,08,25,01,17,18.40
2016,08,25,01,18,18.40
2016,08,25,01,19,18.30
2016,08,25,01,20,18.30
2016,08,25,01,21,18.30
2016,08,25,01,22,18.20
2016,08,25,01,23,18.20
2016,08,25,01,24,18.20
2016,08,25,01,25,18.20
2016,08,25,01,26,18.20
2016,08,25,01,27,18.20
2016,08,25,01,28,18.20
2016,08,25,01,29,18.20
2016,08,25,01,30,18.20
2016,08,25,01,31,18.10
2016,08,25,01,32,18.10
2016,08,25,01,33,18.10
2016,08,25,01,34,18.10
2016,08,25,01,35,18.10
2016,08,25,01,36,18.10
2016,08,25,01,37,18.10
2016,08,25,01,38,18.10
2016,08,25,01,39,18.10
2016,08,25,01,40,18.20
2016,08,25,01,41,18.20
2016,08,25,01,42,18.20
2016,08,25,01,43,18.20
2016,08,25,01,44,18.20
2016,08,25,01,45,18.20
2016,08,25,01,46,18.10
2016,08,25,01,47,18.10
2016,08,25,01,48,18.10
2016,08,25,01,49,18.10
2016,08,25,01,50,18.00
2016,08,25,01,51,17.90
2016,08,25,01,52,17.90
2016,08,25,01,53,17.90
2016,08,25,01,54,17.90
2016,08,25,01,55,17.90
2016,08,25,01,56,17.90
2016,08,25,01,57,17.90
2016,08,25,01,58,17.90
2016,08,25,01,59,17.90
2016,08,25,02,00,17.80
2016,08,25,02,01,17.80
2016,08,25,02,02,17.80
2016,08,25,02,03,17.70
2016,08,25,02,04,17.70
2016,08,25,02,05,17.70
2016,08,25,02,06,17.70
2016,08,25,02,07,17.70
2016,08,25,02,08,17.60
2016,08,25,02,09,17.60
2016,08,25,02,10,17.60
2016,08,25,02,11,17.50
2016,08,25,02,12,17.50
2016,08,25,02,13,17.50
2016,08,25,02,14,17.50
2016,08,25,02,15,17.40
2016,08,25,02,16,17.40
2016,08,25,02,17,17.40
2016,08,25,02,18,17.40
2016,08,25,02,19,17.30
2016,08,25,02,20,17.30
2016,08,25,02,21,17.30
2016,08,25,02,22,17.30
2016,08,25,02,23,17.30
2016,08,25,02,24,17.30
2016,08,25,02,25,17.20
2016,08,25,02,26,17.20
2016,08,25,02,27,17.20
2016,08,25,02,28,17.20
2016,08,25,02,29,17.10
2016,08,25,02,30,17.10
2016,08,25,02,31,17.10
2016,08,25,02,32,17.10
2016,08,25,02,33,17.10
2016,08,25,02,34,17.10
2016,08,25,02,35,17.10
2016,08,25,02,36,17.10
2016,08,25,02,37,17.10
2016,08,25,02,38,17.10
2016,08,25,02,39,17.10
2016,08,25,02,40,17.00
2016,08,25,02,41,17.00
2016,08,25,02,42,17.00
2016,08,25,02,43,16.90
2016,08,25,02,44,16.90
2016,08,25,02,45,16.90
2016,08,25,02,46,16.90
2016,08,25,02,47,16.80
2016,08,25,02,48,16.80
2016,08,25,02,49,16.80
2016,08,25,02,50,16.80
2016,08,25,02,51,16.70
2016,08,25,02,52,16.70
2016,08,25,02,53,16.70
2016,08,25,02,54,16.70
2016,08,25,02,55,16.70
2016,08,25,02,56,16.70
2016,08,25,02,57,16.70
2016,08,25,02,58,16.60
2016,08,25,02,59,16.60
2016,08,25,03,00,16.60
2016,08,25,03,01,16.60
2016,08,25,03,02,16.40
2016,08,25,03,03,16.40
2016,08,25,03,04,16.40
2016,08,25,03,05,16.40
2016,08,25,03,06,16.50
2016,08,25,03,07,16.60
2016,08,25,03,08,16.60
2016,08,25,03,09,16.60
2016,08,25,03,10,16.60
2016,08,25,03,11,16.60
2016,08,25,03,12,16.60
2016,08,25,03,13,16.60
2016,08,25,03,14,16.60
2016,08,25,03,15,16.60
2016,08,25,03,16,16.60
2016,08,25,03,17,16.60
2016,08,25,03,18,16.60
2016,08,25,03,19,16.60
2016,08,25,03,20,16.60
2016,08,25,03,21,16.60
2016,08,25,03,22,16.60
2016,08,25,03,23,16.60
2016,08,25,03,24,16.60
2016,08,25,03,25,16.60
2016,08,25,03,26,16.60
2016,08,25,03,27,16.60
2016,08,25,03,28,16.60
2016,08,25,03,29,16.60
2016,08,25,03,30,16.50
2016,08,25,03,31,16.40
2016,08,25,03,32,16.40
2016,08,25,03,33,16.40
2016,08,25,03,34,16.40
2016,08,25,03,35,16.40
2016,08,25,03,36,16.40
2016,08,25,03,37,16.40
2016,08,25,03,38,16.40
2016,08,25,03,39,16.40
2016,08,25,03,40,16.40
2016,08,25,03,41,16.40
2016,08,25,03,42,16.40
2016,08,25,03,43,16.40
2016,08,25,03,44,16.40
2016,08,25,03,45,16.40
2016,08,25,03,46,16.40
2016,08,25,03,47,16.40
2016,08,25,03,48,16.30
2016,08,25,03,49,16.30
2016,08,25,03,50,16.30
2016,08,25,03,51,16.30
2016,08,25,03,52,16.30
2016,08,25,03,53,16.20
2016,08,25,03,54,16.20
2016,08,25,03,55,16.20
2016,08,25,03,56,16.20
2016,08,25,03,57,16.20
2016,08,25,03,58,16.20
2016,08,25,03,59,16.20
2016,08,25,04,00,16.20
2016,08,25,04,01,16.10
2016,08,25,04,02,16.10
2016,08,25,04,03,16.10
2016,08,25,04,04,16.10
2016,08,25,04,05,16.10
2016,08,25,04,06,16.10
2016,08,25,04,07,16.00
2016,08,25,04,08,15.90
2016,08,25,04,09,15.90
2016,08,25,04,10,15.90
2016,08,25,04,11,15.90
2016,08,25,04,12,15.80
2016,08,25,04,13,15.80
2016,08,25,04,14,15.80
2016,08,25,04,15,15.80
2016,08,25,04,16,15.80
2016,08,25,04,17,15.80
2016,08,25,04,18,15.90
2016,08,25,04,19,15.90
2016,08,25,04,20,15.90
2016,08,25,04,21,15.90
2016,08,25,04,22,15.80
2016,08,25,04,23,15.80
2016,08,25,04,24,15.80
2016,08,25,04,25,15.80
2016,08,25,04,26,15.80
2016,08,25,04,27,15.80
2016,08,25,04,28,15.80
2016,08,25,04,29,15.80
2016,08,25,04,30,15.80
2016,08,25,04,31,15.80
2016,08,25,04,32,15.80
2016,08,25,04,33,15.80
2016,08,25,04,34,15.80
2016,08,25,04,35,15.80
2016,08,25,04,36,15.80
2016,08,25,04,37,15.80
2016,08,25,04,38,15.80
2016,08,25,04,39,15.80
2016,08,25,04,40,15.80
2016,08,25,04,41,15.80
2016,08,25,04,42,15.80
2016,08,25,04,43,15.80
2016,08,25,04,44,15.80
2016,08,25,04,45,15.80
2016,08,25,04,46,15.80
2016,08,25,04,47,15.80
2016,08,25,04,48,15.70
2016,08,25,04,49,15.70
2016,08,25,04,50,15.70
2016,08,25,04,51,15.70
2016,08,25,04,52,15.70
2016,08,25,04,53,15.70
2016,08,25,04,54,15.70
2016,08,25,04,55,15.70
2016,08,25,04,56,15.60
2016,08,25,04,57,15.60
2016,08,25,04,58,15.60
2016,08,25,04,59,15.60
2016,08,25,05,00,15.60
2016,08,25,05,01,15.60
2016,08,25,05,02,15.60
2016,08,25,05,03,15.60
2016,08,25,05,04,15.60
2016,08,25,05,05,15.60
2016,08,25,05,06,15.60
2016,08,25,05,07,15.60
2016,08,25,05,08,15.60
2016,08,25,05,09,15.60
2016,08,25,05,10,15.60
2016,08,25,05,11,15.60
2016,08,25,05,12,15.60
2016,08,25,05,13,15.60
2016,08,25,05,14,15.60
2016,08,25,05,15,15.50
2016,08,25,05,16,15.50
2016,08,25,05,17,15.50
2016,08,25,05,18,15.50
2016,08,25,05,19,15.50
2016,08,25,05,20,15.50
2016,08,25,05,21,15.50
2016,08,25,05,22,15.40
2016,08,25,05,23,15.40
2016,08,25,05,24,15.40
2016,08,25,05,25,15.40
2016,08,25,05,26,15.30
2016,08,25,05,27,15.30
2016,08,25,05,28,15.30
2016,08,25,05,29,15.30
2016,08,25,05,30,15.30
2016,08,25,05,31,15.30
2016,08,25,05,32,15.20
2016,08,25,05,33,15.20
2016,08,25,05,34,15.20
2016,08,25,05,35,15.10
2016,08,25,05,36,15.10
2016,08,25,05,37,15.10
2016,08,25,05,38,15.00
2016,08,25,05,39,15.00
2016,08,25,05,40,15.00
2016,08,25,05,41,15.00
2016,08,25,05,42,15.00
2016,08,25,05,43,15.00
2016,08,25,05,44,15.00
2016,08,25,05,45,14.90
2016,08,25,05,46,14.90
2016,08,25,05,47,14.90
2016,08,25,05,48,14.90
2016,08,25,05,49,14.90
2016,08,25,05,50,14.90
2016,08,25,05,51,14.90
2016,08,25,05,52,14.90
2016,08,25,05,53,14.90
2016,08,25,05,54,14.90
2016,08,25,05,55,14.90
2016,08,25,05,56,14.80
2016,08,25,05,57,14.80
2016,08,25,05,58,14.80
2016,08,25,05,59,14.80
2016,08,25,06,00,14.80
2016,08,25,06,01,14.80
2016,08,25,06,02,14.70
2016,08,25,06,03,14.70
2016,08,25,06,04,14.70
2016,08,25,06,05,14.70
2016,08,25,06,06,14.70
2016,08,25,06,07,14.70
2016,08,25,06,08,14.70
2016,08,25,06,09,14.70
2016,08,25,06,10,14.70
2016,08,25,06,11,14.70
2016,08,25,06,12,14.80
2016,08,25,06,13,14.80
2016,08,25,06,14,14.80
2016,08,25,06,15,14.80
2016,08,25,06,16,14.80
2016,08,25,06,17,14.80
2016,08,25,06,18,14.80
2016,08,25,06,19,14.80
2016,08,25,06,20,14.80
2016,08,25,06,21,14.80
2016,08,25,06,22,14.80
2016,08,25,06,23,14.80
2016,08,25,06,24,14.70
2016,08,25,06,25,14.70
2016,08,25,06,26,14.70
2016,08,25,06,27,14.70
2016,08,25,06,28,14.70
2016,08,25,06,29,14.70
2016,08,25,06,30,14.70
2016,08,25,06,31,14.70
2016,08,25,06,32,14.70
2016,08,25,06,33,14.70
2016,08,25,06,34,14.60
2016,08,25,06,35,14.60
2016,08,25,06,36,14.60
2016,08,25,06,37,14.60
2016,08,25,06,38,14.60
2016,08,25,06,39,14.60
2016,08,25,06,40,14.50
2016,08,25,06,41,14.50
2016,08,25,06,42,14.50
2016,08,25,06,43,14.60
2016,08,25,06,44,14.50
2016,08,25,06,45,14.50
2016,08,25,06,46,14.50
2016,08,25,06,47,14.50
2016,08,25,06,48,14.50
2016,08,25,06,49,14.50
2016,08,25,06,50,14.50
2016,08,25,06,51,14.50
2016,08,25,06,52,14.50
2016,08,25,06,53,14.50
2016,08,25,06,54,14.50
2016,08,25,06,55,14.50
2016,08,25,06,56,14.50
2016,08,25,06,57,14.40
2016,08,25,06,58,14.40
2016,08,25,06,59,14.40
2016,08,25,07,00,14.40
2016,08,25,07,01,14.40
2016,08,25,07,02,14.50
2016,08,25,07,03,14.50
2016,08,25,07,04,14.50
2016,08,25,07,05,14.50
2016,08,25,07,06,14.60
2016,08,25,07,07,14.60
2016,08,25,07,08,14.60
2016,08,25,07,09,14.70
2016,08,25,07,10,14.70
2016,08,25,07,11,14.70
2016,08,25,07,12,14.80
2016,08,25,07,13,14.80
2016,08,25,07,14,14.80
2016,08,25,07,15,14.90
2016,08,25,07,16,14.90
2016,08,25,07,17,15.00
2016,08,25,07,18,15.00
2016,08,25,07,19,15.00
2016,08,25,07,20,15.10
2016,08,25,07,21,15.10
2016,08,25,07,22,15.20
2016,08,25,07,23,15.20
2016,08,25,07,24,15.20
2016,08,25,07,25,15.20
2016,08,25,07,26,15.30
2016,08,25,07,27,15.30
2016,08,25,07,28,15.30
2016,08,25,07,29,15.30
2016,08,25,07,30,15.40
2016,08,25,07,31,15.40
2016,08,25,07,32,15.40
2016,08,25,07,33,15.50
2016,08,25,07,34,15.50
2016,08,25,07,35,15.50
2016,08,25,07,36,15.60
2016,08,25,07,37,15.60
2016,08,25,07,38,15.70
2016,08,25,07,39,15.70
2016,08,25,07,40,15.80
2016,08,25,07,41,15.90
2016,08,25,07,42,16.00
2016,08,25,07,43,16.10
2016,08,25,07,44,16.10
2016,08,25,07,45,16.20
2016,08,25,07,46,16.20
2016,08,25,07,47,16.30
2016,08,25,07,48,16.40
2016,08,25,07,49,16.40
2016,08,25,07,50,16.60
2016,08,25,07,51,16.70
2016,08,25,07,52,16.80
2016,08,25,07,53,16.90
2016,08,25,07,54,17.10
2016,08,25,07,55,17.20
2016,08,25,07,56,17.30
2016,08,25,07,57,17.50
2016,08,25,07,58,17.70
2016,08,25,07,59,17.80
2016,08,25,08,00,18.00
2016,08,25,08,01,18.20
2016,08,25,08,02,18.30
2016,08,25,08,03,18.30
2016,08,25,08,04,18.40
2016,08,25,08,05,18.50
2016,08,25,08,06,18.70
2016,08,25,08,07,18.80
2016,08,25,08,08,18.90
2016,08,25,08,09,19.10
2016,08,25,08,10,19.20
2016,08,25,08,11,19.40
2016,08,25,08,12,19.50
2016,08,25,08,13,19.60
2016,08,25,08,14,19.70
2016,08,25,08,15,19.90
2016,08,25,08,16,20.00
2016,08,25,08,17,20.10
2016,08,25,08,18,20.20
2016,08,25,08,19,20.20
2016,08,25,08,20,20.20
2016,08,25,08,21,20.30
2016,08,25,08,22,20.40
2016,08,25,08,23,20.50
2016,08,25,08,24,20.50
2016,08,25,08,25,20.50
2016,08,25,08,26,20.70
2016,08,25,08,27,20.80
2016,08,25,08,28,20.90
2016,08,25,08,29,21.00
2016,08,25,08,30,21.10
2016,08,25,08,31,21.20
2016,08,25,08,32,21.30
2016,08,25,08,33,21.40
2016,08,25,08,34,21.60
2016,08,25,08,35,21.60
2016,08,25,08,36,21.70
2016,08,25,08,37,21.90
2016,08,25,08,38,22.00
2016,08,25,08,39,22.10
2016,08,25,08,40,22.20
2016,08,25,08,41,22.30
2016,08,25,08,42,22.30
2016,08,25,08,43,22.40
2016,08,25,08,44,22.50
2016,08,25,08,45,22.50
2016,08,25,08,46,22.60
2016,08,25,08,47,22.70
2016,08,25,08,48,22.70
2016,08,25,08,49,22.80
2016,08,25,08,50,22.90
2016,08,25,08,51,22.90
2016,08,25,08,52,23.00
2016,08,25,08,53,23.10
2016,08,25,08,54,23.10
2016,08,25,08,55,23.00
2016,08,25,08,56,22.90
2016,08,25,08,57,22.90
2016,08,25,08,58,22.90
2016,08,25,08,59,22.80
2016,08,25,09,00,22.80
2016,08,25,09,01,22.80
2016,08,25,09,02,22.90
2016,08,25,09,03,22.90
2016,08,25,09,04,22.90
2016,08,25,09,05,22.90
2016,08,25,09,06,22.90
2016,08,25,09,07,22.90
2016,08,25,09,08,23.00
2016,08,25,09,09,23.10
2016,08,25,09,10,23.10
2016,08,25,09,11,23.20
2016,08,25,09,12,23.20
2016,08,25,09,13,23.20
2016,08,25,09,14,23.20
2016,08,25,09,15,23.20
2016,08,25,09,16,23.20
2016,08,25,09,17,23.10
2016,08,25,09,18,23.10
2016,08,25,09,19,23.10
2016,08,25,09,20,23.20
2016,08,25,09,21,23.20
2016,08,25,09,22,23.20
2016,08,25,09,23,23.20
2016,08,25,09,24,23.10
2016,08,25,09,25,23.20
2016,08,25,09,26,23.20
2016,08,25,09,27,23.10
2016,08,25,09,28,23.20
2016,08,25,09,29,23.20
2016,08,25,09,30,23.20
2016,08,25,09,31,23.20
2016,08,25,09,32,23.20
2016,08,25,09,33,23.20
2016,08,25,09,34,23.20
2016,08,25,09,35,23.30
2016,08,25,09,36,23.30
2016,08,25,09,37,23.30
2016,08,25,09,38,23.40
2016,08,25,09,39,23.40
2016,08,25,09,40,23.50
2016,08,25,09,41,23.60
2016,08,25,09,42,23.70
2016,08,25,09,43,23.70
2016,08,25,09,44,23.70
2016,08,25,09,45,23.70
2016,08,25,09,46,23.70
2016,08,25,09,47,23.70
2016,08,25,09,48,23.70
2016,08,25,09,49,23.70
2016,08,25,09,50,23.70
2016,08,25,09,51,23.70
2016,08,25,09,52,23.70
2016,08,25,09,53,23.70
2016,08,25,09,54,23.70
2016,08,25,09,55,23.80
2016,08,25,09,56,23.90
2016,08,25,09,57,24.00
2016,08,25,09,58,24.10
2016,08,25,09,59,24.10
2016,08,25,10,00,24.10
2016,08,25,10,01,24.10
2016,08,25,10,02,24.10
2016,08,25,10,03,24.10
2016,08,25,10,04,24.20
2016,08,25,10,05,24.30
2016,08,25,10,06,24.40
2016,08,25,10,07,24.50
2016,08,25,10,08,24.50
2016,08,25,10,09,24.60
2016,08,25,10,10,24.70
2016,08,25,10,11,24.70
2016,08,25,10,12,24.70
2016,08,25,10,13,24.70
2016,08,25,10,14,24.70
2016,08,25,10,15,24.70
2016,08,25,10,16,24.70
2016,08,25,10,17,24.70
2016,08,25,10,18,24.70
2016,08,25,10,19,24.80
2016,08,25,10,20,24.80
2016,08,25,10,21,24.80
2016,08,25,10,22,24.80
2016,08,25,10,23,24.90
2016,08,25,10,24,24.90
2016,08,25,10,25,25.00
2016,08,25,10,26,25.00
2016,08,25,10,27,25.00
2016,08,25,10,28,25.10
2016,08,25,10,29,25.20
2016,08,25,10,30,25.30
2016,08,25,10,31,25.40
2016,08,25,10,32,25.40
2016,08,25,10,33,25.40
2016,08,25,10,34,25.40
2016,08,25,10,35,25.50
2016,08,25,10,36,25.50
2016,08,25,10,37,25.60
2016,08,25,10,38,25.70
2016,08,25,10,39,25.80
2016,08,25,10,40,25.90
2016,08,25,10,41,25.90
2016,08,25,10,42,26.00
2016,08,25,10,43,26.00
2016,08,25,10,44,26.00
2016,08,25,10,45,25.90
2016,08,25,10,46,25.90
2016,08,25,10,47,25.90
2016,08,25,10,48,25.80
2016,08,25,10,49,25.80
2016,08,25,10,50,25.80
2016,08,25,10,51,25.80
2016,08,25,10,52,25.80
2016,08,25,10,53,25.80
2016,08,25,10,54,25.80
2016,08,25,10,55,25.80
2016,08,25,10,56,25.90
2016,08,25,10,57,25.80
2016,08,25,10,58,25.90
2016,08,25,10,59,25.90
2016,08,25,11,00,26.00
2016,08,25,11,01,26.10
2016,08,25,11,02,26.10
2016,08,25,11,03,26.10
2016,08,25,11,04,26.00
2016,08,25,11,05,26.00
2016,08,25,11,06,26.00
2016,08,25,11,07,26.00
2016,08,25,11,08,26.00
2016,08,25,11,09,26.10
2016,08,25,11,10,26.00
2016,08,25,11,11,26.00
2016,08,25,11,12,26.00
2016,08,25,11,13,25.90
2016,08,25,11,14,25.90
2016,08,25,11,15,25.80
2016,08,25,11,16,25.70
2016,08,25,11,17,25.60
2016,08,25,11,18,25.60
2016,08,25,11,19,25.60
2016,08,25,11,20,25.60
2016,08,25,11,21,25.60
2016,08,25,11,22,25.50
2016,08,25,11,23,25.50
2016,08,25,11,24,25.50
2016,08,25,11,25,25.50
2016,08,25,11,26,25.40
2016,08,25,11,27,25.30
2016,08,25,11,28,25.10
2016,08,25,11,29,25.00
2016,08,25,11,30,24.90
2016,08,25,11,31,24.70
2016,08,25,11,32,24.60
2016,08,25,11,33,24.50
2016,08,25,11,34,24.50
2016,08,25,11,35,24.40
2016,08,25,11,36,24.40
2016,08,25,11,37,24.40
2016,08,25,11,38,24.50
2016,08,25,11,39,24.50
2016,08,25,11,40,24.60
2016,08,25,11,41,24.60
2016,08,25,11,42,24.60
2016,08,25,11,43,24.50
2016,08,25,11,44,24.50
2016,08,25,11,45,24.50
2016,08,25,11,46,24.50
2016,08,25,11,47,24.50
2016,08,25,11,48,24.50
2016,08,25,11,49,24.50
2016,08,25,11,50,24.60
2016,08,25,11,51,24.50
2016,08,25,11,52,24.50
2016,08,25,11,53,24.50
2016,08,25,11,54,24.50
2016,08,25,11,55,24.60
2016,08,25,11,56,24.70
2016,08,25,11,57,24.70
2016,08,25,11,58,24.80
2016,08,25,11,59,24.90
2016,08,25,12,00,24.90
2016,08,25,12,01,25.00
2016,08,25,12,02,24.90
2016,08,25,12,03,24.80
2016,08,25,12,04,24.90
2016,08,25,12,05,24.90
2016,08,25,12,06,25.10
2016,08,25,12,07,25.20
2016,08,25,12,08,25.20
2016,08,25,12,09,25.40
2016,08,25,12,10,25.40
2016,08,25,12,11,25.40
2016,08,25,12,12,25.40
2016,08,25,12,13,25.40
2016,08,25,12,14,25.40
2016,08,25,12,15,25.50
2016,08,25,12,16,25.50
2016,08,25,12,17,25.60
2016,08,25,12,18,25.60
2016,08,25,12,19,25.80
2016,08,25,12,20,25.80
2016,08,25,12,21,25.80
2016,08,25,12,22,25.80
2016,08,25,12,23,25.90
2016,08,25,12,24,25.80
2016,08,25,12,25,25.80
2016,08,25,12,26,25.80
2016,08,25,12,27,25.80
2016,08,25,12,28,25.80
2016,08,25,12,29,25.80
2016,08,25,12,30,25.80
2016,08,25,12,31,25.70
2016,08,25,12,32,25.70
2016,08,25,12,33,25.70
2016,08,25,12,34,25.70
2016,08,25,12,35,25.80
2016,08,25,12,36,25.90
2016,08,25,12,37,26.00
2016,08,25,12,38,26.00
2016,08,25,12,39,26.20
2016,08,25,12,40,26.30
2016,08,25,12,41,26.50
2016,08,25,12,42,26.60
2016,08,25,12,43,26.70
2016,08,25,12,44,26.80
2016,08,25,12,45,27.00
2016,08,25,12,46,27.10
2016,08,25,12,47,27.30
2016,08,25,12,48,27.30
2016,08,25,12,49,27.40
2016,08,25,12,50,27.40
2016,08,25,12,51,27.40
2016,08,25,12,52,27.30
2016,08,25,12,53,27.20
2016,08,25,12,54,27.20
2016,08,25,12,55,27.20
2016,08,25,12,56,27.20
2016,08,25,12,57,27.20
2016,08,25,12,58,27.20
2016,08,25,12,59,27.20
2016,08,25,13,00,27.10
2016,08,25,13,01,27.10
2016,08,25,13,02,27.20
2016,08,25,13,03,27.10
2016,08,25,13,04,27.00
2016,08,25,13,05,26.80
2016,08,25,13,06,26.60
2016,08,25,13,07,26.60
2016,08,25,13,08,26.60
2016,08,25,13,09,26.60
2016,08,25,13,10,26.60
2016,08,25,13,11,26.80
2016,08,25,13,12,26.90
2016,08,25,13,13,26.90
2016,08,25,13,14,27.10
2016,08,25,13,15,27.10
2016,08,25,13,16,27.20
2016,08,25,13,17,27.30
2016,08,25,13,18,27.40
2016,08,25,13,19,27.50
2016,08,25,13,20,27.60
2016,08,25,13,21,27.60
2016,08,25,13,22,27.70
2016,08,25,13,23,27.70
2016,08,25,13,24,27.60
2016,08,25,13,25,27.60
2016,08,25,13,26,27.60
2016,08,25,13,27,27.70
2016,08,25,13,28,27.80
2016,08,25,13,29,27.90
2016,08,25,13,30,28.00
2016,08,25,13,31,28.00
2016,08,25,13,32,28.00
2016,08,25,13,33,28.00
2016,08,25,13,34,28.00
2016,08,25,13,35,28.00
2016,08,25,13,36,28.00
2016,08,25,13,37,28.00
2016,08,25,13,38,28.00
2016,08,25,13,39,27.90
2016,08,25,13,40,27.90
2016,08,25,13,41,28.00
2016,08,25,13,42,28.00
2016,08,25,13,43,28.00
2016,08,25,13,44,28.00
2016,08,25,13,45,28.00
2016,08,25,13,46,28.10
2016,08,25,13,47,28.10
2016,08,25,13,48,28.10
2016,08,25,13,49,28.20
2016,08,25,13,50,28.20
2016,08,25,13,51,28.20
2016,08,25,13,52,28.20
2016,08,25,13,53,28.20
2016,08,25,13,54,28.30
2016,08,25,13,55,28.20
2016,08,25,13,56,28.10
2016,08,25,13,57,28.10
2016,08,25,13,58,28.10
2016,08,25,13,59,28.00
2016,08,25,14,00,27.90
2016,08,25,14,01,27.90
2016,08,25,14,02,27.90
2016,08,25,14,03,27.80
2016,08,25,14,04,27.70
2016,08,25,14,05,27.60
2016,08,25,14,06,27.60
2016,08,25,14,07,27.70
2016,08,25,14,08,27.70
2016,08,25,14,09,27.60
2016,08,25,14,10,27.60
2016,08,25,14,11,27.50
2016,08,25,14,12,27.40
2016,08,25,14,13,27.40
2016,08,25,14,14,27.30
2016,08,25,14,15,27.40
2016,08,25,14,16,27.40
2016,08,25,14,17,27.40
2016,08,25,14,18,27.50
2016,08,25,14,19,27.50
2016,08,25,14,20,27.40
2016,08,25,14,21,27.40
2016,08,25,14,22,27.40
2016,08,25,14,23,27.40
2016,08,25,14,24,27.40
2016,08,25,14,25,27.40
2016,08,25,14,26,27.40
2016,08,25,14,27,27.40
2016,08,25,14,28,27.40
2016,08,25,14,29,27.40
2016,08,25,14,30,27.50
2016,08,25,14,31,27.50
2016,08,25,14,32,27.40
2016,08,25,14,33,27.50
2016,08,25,14,34,27.60
2016,08,25,14,35,27.60
2016,08,25,14,36,27.70
2016,08,25,14,37,27.70
2016,08,25,14,38,27.80
2016,08,25,14,39,27.80
2016,08,25,14,40,27.80
2016,08,25,14,41,27.90
2016,08,25,14,42,27.90
2016,08,25,14,43,28.00
2016,08,25,14,44,28.00
2016,08,25,14,45,28.10
2016,08,25,14,46,28.20
2016,08,25,14,47,28.20
2016,08,25,14,48,28.20
2016,08,25,14,49,28.30
2016,08,25,14,50,28.30
2016,08,25,14,51,28.30
2016,08,25,14,52,28.40
2016,08,25,14,53,28.20
2016,08,25,14,54,28.30
2016,08,25,14,55,28.40
2016,08,25,14,56,28.50
2016,08,25,14,57,28.60
2016,08,25,14,58,28.50
2016,08,25,14,59,28.40
2016,08,25,15,00,28.30
2016,08,25,15,01,28.30
2016,08,25,15,02,28.20
2016,08,25,15,03,28.30
2016,08,25,15,04,28.30
2016,08,25,15,05,28.30
2016,08,25,15,06,28.30
2016,08,25,15,07,28.30
2016,08,25,15,08,28.30
2016,08,25,15,09,28.30
2016,08,25,15,10,28.40
2016,08,25,15,11,28.40
2016,08,25,15,12,28.30
2016,08,25,15,13,28.30
2016,08,25,15,14,28.30
2016,08,25,15,15,28.30
2016,08,25,15,16,28.40
2016,08,25,15,17,28.50
2016,08,25,15,18,28.50
2016,08,25,15,19,28.40
2016,08,25,15,20,28.30
2016,08,25,15,21,28.30
2016,08,25,15,22,28.20
2016,08,25,15,23,28.10
2016,08,25,15,24,28.10
2016,08,25,15,25,28.10
2016,08,25,15,26,28.10
2016,08,25,15,27,28.10
2016,08,25,15,28,28.10
2016,08,25,15,29,28.00
2016,08,25,15,30,28.10
2016,08,25,15,31,28.10
2016,08,25,15,32,28.10
2016,08,25,15,33,28.10
2016,08,25,15,34,28.20
2016,08,25,15,35,28.10
2016,08,25,15,36,28.10
2016,08,25,15,37,28.20
2016,08,25,15,38,28.20
2016,08,25,15,39,28.20
2016,08,25,15,40,28.30
2016,08,25,15,41,28.30
2016,08,25,15,42,28.30
2016,08,25,15,43,28.30
2016,08,25,15,44,28.40
2016,08,25,15,45,28.50
2016,08,25,15,46,28.60
2016,08,25,15,47,28.60
2016,08,25,15,48,28.70
2016,08,25,15,49,28.70
2016,08,25,15,50,28.80
2016,08,25,15,51,28.90
2016,08,25,15,52,28.90
2016,08,25,15,53,28.90
2016,08,25,15,54,29.00
2016,08,25,15,55,29.10
2016,08,25,15,56,29.20
2016,08,25,15,57,29.30
2016,08,25,15,58,29.30
2016,08,25,15,59,29.30
2016,08,25,16,00,29.30
2016,08,25,16,01,29.40
2016,08,25,16,02,29.40
2016,08,25,16,03,29.50
2016,08,25,16,04,29.60
2016,08,25,16,05,29.70
2016,08,25,16,06,29.80
2016,08,25,16,07,29.80
2016,08,25,16,08,29.90
2016,08,25,16,09,30.00
2016,08,25,16,10,30.10
2016,08,25,16,11,30.20
2016,08,25,16,12,30.30
2016,08,25,16,13,30.40
2016,08,25,16,14,30.60
2016,08,25,16,15,30.70
2016,08,25,16,16,30.80
2016,08,25,16,17,30.80
2016,08,25,16,18,30.80
2016,08,25,16,19,30.80
2016,08,25,16,20,30.90
2016,08,25,16,21,31.00
2016,08,25,16,22,31.10
2016,08,25,16,23,31.10
2016,08,25,16,24,31.00
2016,08,25,16,25,31.00
2016,08,25,16,26,31.00
2016,08,25,16,27,31.00
2016,08,25,16,28,31.00
2016,08,25,16,29,31.10
2016,08,25,16,30,31.10
2016,08,25,16,31,31.10
2016,08,25,16,32,31.10
2016,08,25,16,33,31.10
2016,08,25,16,34,31.00
2016,08,25,16,35,31.00
2016,08,25,16,36,31.00
2016,08,25,16,37,31.00
2016,08,25,16,38,30.90
2016,08,25,16,39,30.90
2016,08,25,16,40,31.00
2016,08,25,16,41,31.00
2016,08,25,16,42,31.10
2016,08,25,16,43,31.20
2016,08,25,16,44,31.20
2016,08,25,16,45,31.10
2016,08,25,16,46,31.10
2016,08,25,16,47,31.20
2016,08,25,16,48,31.20
2016,08,25,16,49,31.20
2016,08,25,16,50,31.20
2016,08,25,16,51,31.20
2016,08,25,16,52,31.20
2016,08,25,16,53,31.20
2016,08,25,16,54,31.10
2016,08,25,16,55,31.10
2016,08,25,16,56,31.10
2016,08,25,16,57,31.10
2016,08,25,16,58,31.10
2016,08,25,16,59,31.20
2016,08,25,17,00,31.20
2016,08,25,17,01,31.20
2016,08,25,17,02,31.20
2016,08,25,17,03,31.20
2016,08,25,17,04,31.20
2016,08,25,17,05,31.20
2016,08,25,17,06,31.20
2016,08,25,17,07,31.20
2016,08,25,17,08,31.10
2016,08,25,17,09,31.10
2016,08,25,17,10,31.00
2016,08,25,17,11,31.00
2016,08,25,17,12,30.80
2016,08,25,17,13,30.80
2016,08,25,17,14,30.80
2016,08,25,17,15,30.70
2016,08,25,17,16,30.70
2016,08,25,17,17,30.70
2016,08,25,17,18,30.70
2016,08,25,17,19,30.70